Somerville, NJ

8:50 PM EDT on July 25, 2017 (GMT -0400)
Somerset

Weather History for KSMQ - April, 2013

Change the Weather History Date:

Monday, April 15, 2013

  Actual Average Record
Temperature  
Mean Temperature 51 °F -  
Max Temperature 61 °F 59 °F 85 °F (1941)
Min Temperature 42 °F 35 °F 22 °F (1943)
Degree Days  
Heating Degree Days 14    
Growing Degree Days 1 (Base 50)    
Moisture  
Dew Point 34 °F    
Average Humidity 53    
Maximum Humidity 76    
Minimum Humidity 39    
Precipitation  
Precipitation 0.00 in - - ()
Sea Level Pressure  
Sea Level Pressure 30.30 in    
Wind  
Wind Speed 4 mph (ESE)    
Max Wind Speed 9 mph    
Max Gust Speed 16 mph    
Visibility 10 miles    
Events      
Averages and records for this station are not official NWS values.
T = Trace of Precipitation, MM = Missing Value Source: NWS Daily Summary

Daily Weather History Graph

Daily Weather History Graph

Search for Another Location

Airport or City:

Trip Planner

Search our weather history database for the weather conditions in past years. The results will help you decide how hot, cold, wet, or windy it might be!

Date:

Astronomy

Apr. 15, 2013 Rise Set
Actual Time 6:19 AM EDT 7:38 PM EDT
Civil Twilight 5:51 AM EDT 8:06 PM EDT
Nautical Twilight 5:17 AM EDT 8:40 PM EDT
Astronomical Twilight 4:41 AM EDT 9:16 PM EDT
Moon 9:42 AM EDT (4/15) No Moon Set
Length of Visible Light 14h 15m
Length of Day
13h 18m
Waxing Crescent, 24% of the Moon is Illuminated
Apr 15
Waxing Crescent
Apr 18
First Quarter
Apr 25
Full
May 2
Last Quarter
May 9
New

Hourly Weather History & Observations

Time (EDT) Temp. Dew Point Humidity Pressure Visibility Wind Dir Wind Speed Gust Speed Precip Events Conditions
12:53 AM 48.9 °F 28.0 °F 44% 30.20 in 10.0 mi NE 4.6 mph - N/A   Mostly Cloudy
1:53 AM 48.0 °F 27.0 °F 44% 30.21 in 10.0 mi Variable 4.6 mph - N/A   Clear
2:53 AM 46.0 °F 28.0 °F 50% 30.23 in 10.0 mi Calm Calm - N/A   Clear
3:53 AM 42.1 °F 32.0 °F 67% 30.25 in 10.0 mi Calm Calm - N/A   Clear
4:53 AM 43.0 °F 30.0 °F 60% 30.27 in 10.0 mi Calm Calm - N/A   Mostly Cloudy
5:53 AM 42.1 °F 30.9 °F 65% 30.28 in 10.0 mi Calm Calm - N/A   Clear
6:53 AM 42.1 °F 35.1 °F 76% 30.31 in 10.0 mi Calm Calm - N/A   Overcast
7:53 AM 45.0 °F 34.0 °F 65% 30.32 in 10.0 mi Calm Calm - N/A   Mostly Cloudy
8:53 AM 46.9 °F 30.9 °F 54% 30.35 in 10.0 mi ESE 4.6 mph - N/A   Overcast
9:53 AM 50.0 °F 33.1 °F 52% 30.33 in 10.0 mi ESE 8.1 mph - N/A   Overcast
10:53 AM 53.1 °F 30.9 °F 43% 30.32 in 10.0 mi SE 5.8 mph - N/A   Clear
11:53 AM 55.0 °F 33.1 °F 43% 30.31 in 10.0 mi South 9.2 mph - N/A   Clear
12:53 PM 57.9 °F 34.0 °F 41% 30.30 in 10.0 mi ESE 8.1 mph - N/A   Clear
1:53 PM 59.0 °F 34.0 °F 39% 30.29 in 10.0 mi SE 8.1 mph - N/A   Clear
2:53 PM 59.0 °F 36.0 °F 42% 30.29 in 10.0 mi SE 8.1 mph - N/A   Clear
3:53 PM 60.1 °F 36.0 °F 41% 30.27 in 10.0 mi East 6.9 mph - N/A   Scattered Clouds
4:53 PM 57.0 °F 37.0 °F 47% 30.27 in 10.0 mi Variable 6.9 mph - N/A   Overcast
5:53 PM 55.0 °F 35.1 °F 47% 30.30 in 10.0 mi ESE 8.1 mph 16.1 mph N/A   Overcast
6:53 PM 54.0 °F 36.0 °F 51% 30.30 in 10.0 mi ESE 8.1 mph - N/A   Overcast
7:53 PM 52.0 °F 36.0 °F 54% 30.32 in 10.0 mi SE 8.1 mph - N/A   Overcast
8:53 PM 51.1 °F 37.0 °F 59% 30.34 in 10.0 mi SE 3.5 mph - N/A   Overcast
9:53 PM 50.0 °F 34.0 °F 54% 30.34 in 10.0 mi SE 3.5 mph - N/A   Mostly Cloudy
10:53 PM 50.0 °F 37.0 °F 61% 30.35 in 10.0 mi SE 4.6 mph - N/A   Overcast
11:53 PM 48.9 °F 39.0 °F 69% 30.35 in 10.0 mi Calm Calm - N/A   Overcast